Flag for Germany Weather past 2 weeks in Flensburg, Schleswig-Holstein, Germany

Now
53 °F

Clear.


Feels Like: 53 °F
Forecast: 61 / 82 °F
Wind: 2 mph from Northeast

Location: Schleswig

Current Time: Jul 1, 2015 at 5:01:18 AM

Latest Report: Jul 1, 2015 at 4:00 AM


Visibility: 9 mi

Pressure: 30.24 "Hg

Humidity: 96%

Dew point: 52 °F

Location of FlensburgLocation

Historic Weather in Flensburg — Graph

°F

Flensburg temperature yesterday

Maximum temperature yesterday: 71 °F (at 2:00 PM)
Minimum temperature yesterday: 53 °F (at 5:00 AM)
Average temperature yesterday: 62 °F

Past Weeks' High & Low Weather Summary

 TemperatureHumidityPressure
High72 °F (Jun 29, 3:00 PM)99% (Jun 17, 9:00 PM)30.27 "Hg (Jun 17, 9:00 PM)
Low43 °F (Jun 17, 1:00 AM)46% (Jun 29, 6:00 PM)29.65 "Hg (Jun 22, 9:00 PM)
Average57 °F81%30.01 "Hg
* Reported Jun 16 4:00 AM — Jul 1 4:00 AM, Flensburg, Weather by CustomWeather, © 2015

Note: Actual official high and low records may vary slightly from our data, if they occured in-between our weather recording intervals... More about our weather records

Advertising

Flensburg weather history for previous 24 hours

 ConditionsComfort  
Time TempWeatherWind HumidityBarometerVisibility
4:00 AM
Wed, Jul 1
53 °FClear.2 mph96%30.24 "Hg9 mi
3:00 AM53 °FClear.2 mph94%30.24 "Hg9 mi
2:00 AM55 °FClear.1 mph94%30.24 "Hg12 mi
1:00 AM56 °FClear.1 mph92%30.23 "Hg19 mi
12:00 AM57 °FClear.1 mph90%30.23 "Hg19 mi
11:00 PM
Tue, Jun 30
59 °FClear.1 mph85%30.23 "Hg25 mi
10:00 PM63 °FClear.1 mph73%30.22 "Hg25 mi
9:00 PM67 °FSunny.2 mph60%30.21 "Hg25 mi
8:00 PM68 °FPassing clouds.2 mph57%30.21 "Hg25 mi
7:00 PM69 °FPassing clouds.3 mph52%30.21 "Hg25 mi
6:00 PM70 °FPassing clouds.3 mph51%30.21 "Hg22 mi
4:00 PM70 °FPartly sunny.5 mph54%30.22 "Hg25 mi
3:00 PM70 °FPartly sunny.3 mph53%30.22 "Hg25 mi
2:00 PM71 °FPartly sunny.5 mph58%30.22 "Hg25 mi
1:00 PM70 °FScattered clouds.5 mph55%30.22 "Hg25 mi
12:00 PM69 °FPartly sunny.5 mph58%30.22 "Hg22 mi
10:00 AM64 °FPartly sunny.3 mph73%30.22 "Hg19 mi
9:00 AM62 °FPartly sunny.3 mph80%30.22 "Hg16 mi
8:00 AM60 °FScattered clouds.3 mph88%30.21 "Hg16 mi
7:00 AM56 °FPassing clouds.2 mph96%30.20 "Hg19 mi
6:00 AM53 °FPassing clouds.3 mph98%30.19 "Hg9 mi
5:00 AM53 °FPassing clouds.3 mph98%30.18 "Hg7 mi
Weather by CustomWeather, © 2015

See weather overviewHow to use our weather pages